[[{"header":{"parameterUnit":"m.s-1","parameterCategory":1,"la1":30.2991,"la2":30.254,"lo1":-89.0895,"lo2":-89.0444,"dx":0.0017,"dy":0.0017,"nx":28,"ny":28,"refTime":"2022-11-15T15:00:00:Z","depth":0,"parameterNumber":2,"parameterNumberName":"U-component_of_WINDS"},"data":[0,0,0,0,0,0,0,0,0,0,0,0,0,0,0,0,0,0,0,0,0,0,0,0,0,0,0,0,0,0,0,0,0,0,0,0,0,0,0,0,0,0,0,0,0,0,0,0,0,0,0,0,0,0,0,0,0,0,-0.7355,-0.7355,0,-0.7412,-0.7412,-0.7413,-0.7375,-0.7373,-0.7371,-0.737,-0.743,-0.7433,-0.7436,0,0,0,0,0,0,0,0,0,0,0,0,0,-0.7215,-0.7217,-0.7355,-0.7356,-0.7356,-0.7411,-0.7412,-0.7413,-0.7375,-0.7373,-0.7371,-0.7369,-0.7429,-0.7433,-0.7437,0,0,0,0,0,0,0,0,0,0,0,0,0,-0.7274,-0.7218,-0.7355,-0.7344,-0.7343,-0.7411,-0.7412,-0.7413,-0.7376,-0.7373,-0.737,-0.7368,-0.7428,-0.7432,-0.7437,-0.7519,0,0,-0.7452,-0.7454,0,0,0,0,0,0,0,0,-0.7271,-0.7279,-0.7345,-0.7345,-0.7344,-0.7383,-0.7385,-0.7449,-0.7376,-0.7363,-0.737,-0.7367,-0.7417,-0.7422,-0.7439,-0.7522,-0.7525,-0.7452,-0.7455,-0.7457,-0.7459,0,0,0,0,0,0,0,-0.7267,-0.7276,-0.7377,-0.7346,-0.7346,-0.7336,-0.7342,-0.7397,-0.7404,-0.7364,-0.7362,-0.7369,-0.7416,-0.7434,-0.744,-0.7526,-0.7452,-0.7456,-0.7459,-0.7461,-0.7679,-0.7681,0,0,0,0,0,0,-0.7263,-0.7273,-0.7375,-0.7379,-0.73,-0.7341,-0.7347,-0.7374,-0.7403,-0.7405,-0.7371,-0.7367,-0.7427,-0.7434,-0.7442,-0.754,-0.7457,-0.7462,-0.7465,-0.7676,-0.7679,-0.7682,0,0,0,0,0,0,-0.726,-0.7273,-0.7373,-0.7325,-0.7338,-0.7346,-0.7376,-0.7376,-0.7394,-0.7408,-0.741,-0.7388,-0.7425,-0.7435,-0.75,-0.7542,-0.7464,-0.7468,-0.7672,-0.7677,-0.7681,-0.7738,0,0,0,0,0,0,-0.7256,-0.7272,-0.7303,-0.7326,-0.734,-0.7431,-0.7379,-0.7379,-0.7402,-0.7397,-0.7425,-0.7427,-0.7424,-0.7493,-0.7505,-0.7547,-0.7472,-0.7669,-0.7674,-0.7679,-0.7732,-0.7743,-0.7753,0,0,0,0,0,-0.7252,-0.7318,-0.7305,-0.7318,-0.7379,-0.7433,-0.7441,-0.7436,-0.7406,-0.7438,-0.7446,-0.7426,-0.7535,-0.75,-0.7513,-0.7557,-0.7666,-0.7673,-0.7679,-0.7728,-0.7741,-0.7753,0,0,0,0,0,0,-0.73,-0.7321,-0.7307,-0.7382,-0.7406,-0.7426,-0.7467,-0.7451,-0.7484,-0.7478,-0.7471,-0.7477,-0.7546,-0.7557,-0.7518,-0.7638,-0.7596,-0.7605,-0.7628,-0.7641,-0.7652,-0.7648,-0.7476,0,0,0,0,0,-0.732,-0.7361,-0.7376,-0.7441,-0.7454,-0.7458,-0.7481,-0.7475,-0.75,-0.751,-0.7524,-0.7549,-0.7589,-0.7615,-0.7653,-0.7733,-0.7738,-0.7769,-0.778,-0.7788,-0.7797,-0.784,-0.7855,-0.7703,-0.7703,-0.7703,0,0,-0.7361,-0.7377,-0.7403,-0.7452,-0.7469,-0.7513,-0.7467,-0.7515,-0.7547,-0.7517,-0.758,-0.759,-0.7618,-0.7691,-0.7724,-0.7703,-0.784,-0.7797,-0.7803,-0.7808,-0.7848,-0.7863,-0.7876,-0.7708,-0.7707,-0.7706,0,0,-0.7458,-0.7473,-0.7529,-0.7547,-0.7574,-0.7576,-0.759,-0.7612,-0.7618,-0.768,-0.7658,-0.7696,-0.7765,-0.7785,-0.7805,-0.7907,-0.789,-0.7919,-0.7975,-0.8017,-0.8029,-0.8039,-0.8077,-0.809,-0.7928,-0.7928,-0.7928,0,-0.7505,-0.7569,-0.756,-0.761,-0.7632,-0.7605,-0.7662,-0.768,-0.7718,-0.7734,-0.7709,-0.7794,-0.7811,-0.7888,-0.7913,-0.7929,-0.7945,-0.7917,-0.8028,-0.8038,-0.8048,-0.8083,-0.8097,-0.7931,-0.7931,-0.793,-0.793,0,-0.7627,-0.7672,-0.7714,-0.775,-0.7776,-0.7829,-0.7828,-0.7856,-0.7847,-0.7851,-0.7914,-0.7933,-0.7973,-0.7991,-0.7983,-0.8067,-0.8053,-0.8028,-0.7986,-0.8066,-0.8099,-0.8113,-0.7936,-0.7935,-0.7934,-0.7933,0,0,-0.7759,-0.7788,-0.7804,-0.782,-0.7847,-0.7881,-0.7932,-0.7971,-0.7995,-0.8021,-0.8065,-0.8122,-0.8099,-0.8121,-0.8114,-0.8151,-0.8232,-0.8122,-0.8122,-0.8143,-0.8326,-0.8346,-0.8362,-0.8219,-0.8221,-0.8223,-0.8324,0,-0.7859,-0.7948,-0.794,-0.8025,-0.8066,-0.804,-0.8084,-0.8105,-0.811,-0.8146,-0.8151,-0.8193,-0.8158,-0.8171,-0.8206,-0.8214,-0.8269,-0.8207,-0.826,-0.8262,-0.8256,-0.8379,-0.84,-0.8494,-0.8337,-0.8339,-0.834,0,-0.7987,-0.8017,-0.8106,-0.8125,-0.8142,-0.8182,-0.8217,-0.8251,-0.8274,-0.8275,-0.8298,-0.8285,-0.8336,-0.8291,-0.8362,-0.832,-0.8341,-0.8348,-0.8351,-0.8358,-0.8308,-0.839,-0.8524,-0.8539,-0.8361,-0.8359,-0.8358,0,-0.8076,-0.8138,-0.8199,-0.8213,-0.8237,-0.8266,-0.8278,-0.8298,-0.8321,-0.8351,-0.8366,-0.8402,-0.8422,-0.8449,-0.8446,-0.8413,-0.8518,-0.8473,-0.8521,-0.8522,-0.8547,-0.8546,-0.8688,-0.8557,-0.8557,-0.8557,-0.8557,0,-0.8189,-0.8245,-0.8239,-0.8277,-0.8338,-0.8328,-0.8389,-0.8397,-0.8415,-0.8454,-0.8433,-0.847,-0.8462,-0.8499,-0.8496,-0.8556,-0.8564,-0.8567,-0.8566,-0.857,-0.857,-0.8585,-0.8579,-0.8561,-0.856,-0.8559,-0.8558,0,-0.83,-0.8299,-0.8363,-0.838,-0.8385,-0.843,-0.8444,-0.848,-0.8481,-0.8531,-0.8542,-0.8546,-0.8588,-0.8586,-0.8634,-0.8632,-0.8706,-0.8696,-0.8698,-0.8697,-0.8746,-0.8742,-0.8904,-0.8926,-0.878,-0.8781,-0.8782,0,-0.8373,-0.8415,-0.8436,-0.846,-0.8473,-0.8512,-0.8535,-0.8526,-0.8551,-0.858,-0.8612,-0.8652,-0.8683,-0.8751,-0.8759,-0.8795,-0.8787,-0.8841,-0.8793,-0.8795,-0.879,-0.8788,-0.8792,-0.8852,-0.8854,-0.8855,-0.8856,0,-0.8504,-0.8501,-0.8535,-0.8568,-0.8596,-0.8623,-0.8647,-0.8668,-0.8661,-0.869,-0.8732,-0.8757,-0.8805,-0.8845,-0.8879,-0.8891,-0.8873,-0.8871,-0.8884,-0.889,-0.889,-0.8892,-0.8726,-0.8868,-0.8867,-0.8866,-0.8865,-0.8865,-0.8599,-0.8635,-0.8655,-0.8693,-0.871,-0.8732,-0.8766,-0.8772,-0.8807,-0.8845,-0.8837,-0.8884,-0.8905,-0.8949,-0.8964,-0.9001,-0.8982,-0.9001,-0.9006,-0.9012,-0.9018,-0.8882,-0.9007,-0.9006,-0.9006,-0.9006,-0.9006,0,-0.873,-0.8741,-0.8776,-0.8809,-0.884,-0.8818,-0.8843,-0.887,-0.8912,-0.8932,-0.8963,-0.9011,-0.9049,-0.9058,-0.9095,-0.9122,-0.9115,-0.9133,-0.9131,-0.9135,-0.9032,-0.9018,-0.9138,-0.9138,-0.9138,-0.9138,-0.9138,-0.9138,-0.8801,-0.8861,-0.886,-0.8927,-0.8937,-0.8983,-0.8999,-0.902,-0.9036,-0.9091,-0.9122,-0.9127,-0.9143,-0.918,-0.9214,-0.9215,-0.923,-0.9251,-0.925,-0.9155,-0.9142,-0.9129,-0.9115,-0.9254,-0.9255,-0.9349,-0.935,-0.9351]},{"header":{"parameterUnit":"m.s-1","parameterCategory":1,"la1":30.2991,"la2":30.254,"lo1":-89.0895,"lo2":-89.0444,"dx":0.0017,"dy":0.0017,"nx":28,"ny":28,"refTime":"2022-11-15T15:00:00:Z","depth":0,"parameterNumber":3,"parameterNumberName":"V-component_of_WINDS"},"data":[0,0,0,0,0,0,0,0,0,0,0,0,0,0,0,0,0,0,0,0,0,0,0,0,0,0,0,0,0,0,0,0,0,0,0,0,0,0,0,0,0,0,0,0,0,0,0,0,0,0,0,0,0,0,0,0,0,0,-6.7893,-6.7895,0,-6.8045,-6.8046,-6.8048,-6.7964,-6.796,-6.7956,-6.7952,-6.8103,-6.8111,-6.8118,0,0,0,0,0,0,0,0,0,0,0,0,0,-6.7527,-6.7534,-6.7893,-6.7895,-6.7897,-6.8044,-6.8046,-6.8048,-6.7965,-6.796,-6.7955,-6.795,-6.81,-6.811,-6.8119,0,0,0,0,0,0,0,0,0,0,0,0,0,-6.7683,-6.7536,-6.7893,-6.7873,-6.7873,-6.8044,-6.8046,-6.8049,-6.7966,-6.796,-6.7954,-6.7948,-6.8097,-6.8109,-6.8121,-6.8318,0,0,-6.8157,-6.8162,0,0,0,0,0,0,0,0,-6.7674,-6.7696,-6.7874,-6.7875,-6.7875,-6.7979,-6.7972,-6.8139,-6.7968,-6.7931,-6.7952,-6.7945,-6.8067,-6.8081,-6.8122,-6.8325,-6.8332,-6.8158,-6.8165,-6.817,-6.8173,0,0,0,0,0,0,0,-6.7663,-6.7689,-6.7953,-6.7877,-6.7877,-6.7855,-6.787,-6.8004,-6.8031,-6.7933,-6.7928,-6.7947,-6.8065,-6.8111,-6.8125,-6.8334,-6.8157,-6.8168,-6.8175,-6.818,-6.8705,-6.8711,0,0,0,0,0,0,-6.7654,-6.7681,-6.7948,-6.7957,-6.7757,-6.7867,-6.7884,-6.7952,-6.803,-6.8036,-6.7952,-6.7942,-6.8094,-6.8112,-6.813,-6.8366,-6.817,-6.8181,-6.8188,-6.8698,-6.8706,-6.8714,0,0,0,0,0,0,-6.7647,-6.7679,-6.7942,-6.7818,-6.7849,-6.788,-6.7957,-6.7958,-6.8004,-6.8044,-6.8048,-6.7994,-6.809,-6.8114,-6.8272,-6.837,-6.8186,-6.8197,-6.869,-6.8701,-6.871,-6.884,0,0,0,0,0,0,-6.7637,-6.7677,-6.7754,-6.782,-6.7856,-6.8083,-6.7963,-6.7966,-6.8025,-6.8014,-6.8085,-6.809,-6.8087,-6.8255,-6.8284,-6.8383,-6.8206,-6.8681,-6.8695,-6.8707,-6.8827,-6.8854,-6.8876,0,0,0,0,0,-6.7624,-6.7784,-6.7758,-6.7791,-6.7953,-6.8089,-6.8109,-6.8104,-6.8033,-6.811,-6.8135,-6.8088,-6.8355,-6.8272,-6.8304,-6.8408,-6.8675,-6.8691,-6.8706,-6.8816,-6.8849,-6.8876,0,0,0,0,0,0,-6.7727,-6.7792,-6.7764,-6.795,-6.8015,-6.8075,-6.8171,-6.8138,-6.8223,-6.8209,-6.8196,-6.8213,-6.8378,-6.8408,-6.8315,-6.8603,-6.8504,-6.8526,-6.8577,-6.8608,-6.8632,-6.8621,-6.8216,0,0,0,0,0,-6.7771,-6.7877,-6.7928,-6.8087,-6.8121,-6.8141,-6.82,-6.819,-6.8255,-6.8282,-6.8319,-6.8383,-6.8481,-6.8546,-6.8639,-6.8831,-6.8845,-6.8919,-6.8943,-6.8963,-6.8983,-6.9085,-6.9119,-6.8764,-6.8764,-6.8764,0,0,-6.7864,-6.7913,-6.798,-6.8109,-6.8158,-6.8267,-6.8164,-6.8284,-6.8364,-6.8299,-6.8451,-6.8481,-6.8552,-6.8728,-6.8807,-6.8759,-6.9083,-6.8983,-6.8998,-6.9007,-6.9105,-6.9138,-6.9168,-6.8775,-6.8773,-6.8771,0,0,-6.8088,-6.8137,-6.8274,-6.8325,-6.8401,-6.8413,-6.8446,-6.8511,-6.8528,-6.8681,-6.8634,-6.8728,-6.8898,-6.895,-6.8999,-6.9242,-6.9201,-6.9272,-6.94,-6.9501,-6.9529,-6.9553,-6.9639,-6.9671,-6.9292,-6.9292,-6.9292,0,-6.8194,-6.8358,-6.8349,-6.8472,-6.853,-6.8477,-6.8616,-6.8665,-6.8766,-6.8807,-6.8751,-6.8962,-6.9006,-6.9193,-6.9253,-6.9294,-6.933,-6.9264,-6.9526,-6.955,-6.9573,-6.9655,-6.9688,-6.93,-6.9299,-6.9298,-6.9298,0,-6.8483,-6.8597,-6.8699,-6.8799,-6.8868,-6.8998,-6.9008,-6.9078,-6.9062,-6.9079,-6.9234,-6.9285,-6.9386,-6.943,-6.9415,-6.9615,-6.9582,-6.9527,-6.9427,-6.9615,-6.9692,-6.9723,-6.9312,-6.9309,-6.9307,-6.9305,0,0,-6.8777,-6.8871,-6.8908,-6.8953,-6.9032,-6.9119,-6.9246,-6.9346,-6.9407,-6.9478,-6.9583,-6.9728,-6.9676,-6.9732,-6.9722,-6.981,-6.9998,-6.9743,-6.9744,-6.9788,-7.0221,-7.0262,-7.0299,-6.9972,-6.9978,-6.9982,-7.0215,0,-6.9006,-6.923,-6.9226,-6.9433,-6.9537,-6.9488,-6.9599,-6.9658,-6.9677,-6.9767,-6.9787,-6.989,-6.9815,-6.9848,-6.9933,-6.9958,-7.0085,-6.9941,-7.0068,-7.0073,-7.0052,-7.0339,-7.0384,-7.0601,-7.0245,-7.025,-7.0253,0,-6.9304,-6.9387,-6.9605,-6.9668,-6.9711,-6.9811,-6.9902,-6.9989,-7.0055,-7.0062,-7.0124,-7.01,-7.0227,-7.0123,-7.0297,-7.0199,-7.0251,-7.0271,-7.0279,-7.029,-7.0175,-7.0358,-7.067,-7.0702,-7.0301,-7.0297,-7.0294,0,-6.9496,-6.9662,-6.9813,-6.9853,-6.993,-7.0001,-7.0036,-7.0096,-7.0156,-7.0235,-7.0274,-7.0366,-7.0417,-7.0488,-7.0489,-7.0414,-7.0665,-7.0561,-7.0673,-7.0673,-7.0728,-7.0725,-7.1052,-7.0762,-7.0762,-7.0761,-7.076,0,-6.9753,-6.9888,-6.9901,-6.9994,-7.0143,-7.0136,-7.0283,-7.0311,-7.0365,-7.0461,-7.0424,-7.0515,-7.051,-7.0602,-7.0603,-7.0746,-7.0769,-7.0778,-7.0776,-7.0781,-7.078,-7.0815,-7.08,-7.077,-7.0768,-7.0766,-7.0765,0,-6.9993,-7.0007,-7.0169,-7.0229,-7.0247,-7.0354,-7.0405,-7.0492,-7.0508,-7.063,-7.0658,-7.0682,-7.0789,-7.0796,-7.0918,-7.0919,-7.1093,-7.1075,-7.1071,-7.1068,-7.1179,-7.1169,-7.1541,-7.1588,-7.1267,-7.127,-7.1273,0,-7.0156,-7.0259,-7.033,-7.0393,-7.0432,-7.0534,-7.0595,-7.0591,-7.0657,-7.0739,-7.0816,-7.0919,-7.1001,-7.1172,-7.1199,-7.1292,-7.1276,-7.14,-7.129,-7.1291,-7.1278,-7.1271,-7.1281,-7.1421,-7.1425,-7.1428,-7.143,0,-7.0444,-7.0445,-7.0536,-7.063,-7.0705,-7.0778,-7.0846,-7.0899,-7.0903,-7.0978,-7.1087,-7.1151,-7.1276,-7.1378,-7.1468,-7.1502,-7.1467,-7.1465,-7.1495,-7.1502,-7.1495,-7.15,-7.113,-7.1456,-7.1454,-7.1452,-7.145,-7.1449,-7.065,-7.0739,-7.0803,-7.0905,-7.0956,-7.1021,-7.1106,-7.1132,-7.1223,-7.1326,-7.1317,-7.1437,-7.1498,-7.1617,-7.1658,-7.1751,-7.1708,-7.1753,-7.1764,-7.1775,-7.1787,-7.1481,-7.1767,-7.1766,-7.1766,-7.1765,-7.1764,0,-7.0935,-7.0974,-7.1068,-7.1165,-7.1245,-7.1206,-7.1279,-7.1348,-7.1455,-7.1516,-7.1598,-7.1722,-7.182,-7.1855,-7.195,-7.2018,-7.2004,-7.2043,-7.2038,-7.2046,-7.1819,-7.1783,-7.2052,-7.2052,-7.2052,-7.2052,-7.2052,-7.2052,-7.1093,-7.1241,-7.125,-7.1423,-7.146,-7.1578,-7.1623,-7.1682,-7.173,-7.1871,-7.1953,-7.1976,-7.2026,-7.2124,-7.2212,-7.222,-7.2256,-7.2302,-7.2303,-7.2091,-7.2062,-7.2034,-7.2,-7.231,-7.2311,-7.2522,-7.2524,-7.2525]}]]